Regional Weather Roundup
Issued by NWS Pendleton, OR

Home | Current Version | Previous Version | Text Only | Print | Product List | Glossary On
Versions: 1 2 3 4 5 6 7 8 9 10 11 12 13 14 15 16 17 18 19 20 21 22 23 24 25 26 27 28 29 30 31 32 33 34 35 36 37 38 39 40 41 42 43 44 45 46 47 48 49 50
910
ASUS46 KPDT 170925
RWRPDT
PENDLETON REGIONAL WEATHER ROUNDUP
NATIONAL WEATHER SERVICE PENDLETON OREGON
200 AM PDT TUE OCT 17 2017

NOTE: FAIR INDICATES FEW OR NO CLOUDS BELOW 12,000 FEET WITH NO
SIGNIFICANT WEATHER AND/OR OBSTRUCTIONS TO VISIBILITY.

# INDICATES UNOFFICIAL STATION AND DATA

WAZ520-171010-
EAST SLOPES OF WASHINGTON CASCADES

CITY            SKY/WX      TMP DP  RH  WIND    PRES   REMARKS
#BULLFROG       N/A         35  34  96  CALM    N/A
#CLE ELUM HS    N/A         38  34  85  CALM    29.99F
#CLE ELUM LAKE  N/A         48  33  56  CALM    29.99F
#EASTON DOT     N/A         41  36  82  CALM    N/A
#ELK HTS DOT    N/A         44  43  96  CALM    N/A
#GLENWOOD       N/A         28  25  88  CALM    30.11S
#NELSON 3SW     N/A         41  38  89  CALM    30.26F
#NILE           N/A         38  34  85  CALM    29.36F
#TEANAWAY 4NE   N/A         38  32  79  CALM    N/A
#TROUT LAKE 1NE N/A         35  29  78  CALM    30.10F
#TROUT LAKE 1E  N/A         29  27  92  CALM    30.10F
$$

WAZ521-171010-
SIMCOE HIGHLANDS

CITY            SKY/WX      TMP DP  RH  WIND    PRES   REMARKS
#BICKLETON HS   N/A         52  32  46  SW9     30.03F
#CENTERVILLE 1SWN/A         37  30  75  CALM    30.03S
#GOLDENDALE 1NE N/A         38  23  54  N7      N/A
#GOLDENDALE 4W  N/A         35  19  52  CALM    30.09F
#GOODNOE HILLS  N/A         51  37  59  W7      N/A
#LYLE 6NE       N/A         49  40  71  CALM    30.08F
#PITT 4SE       N/A         49  38  66  CALM    30.08F
$$

WAZ026-171010-
KITTITAS VALLEY

CITY            SKY/WX      TMP DP  RH  WIND    PRES   REMARKS
ELLENSBURG AP   PTCLDY      40  33  76  CALM    30.02F
#ELLENSBURG CWU N/A         40  34  79  NW1     29.97F
#ELLENSBURG 3NE N/A         39  34  82  CALM    28.10F
#ELLENSBURG 1E  N/A         37  33  85  CALM    30.08F
#KITTITAS 3S    N/A         32  30  92  CALM    30.05S
#MANASTASH RDG  N/A         54  53  96  S8      N/A
#ROCKY CYN DOT  N/A         44  33  65  NW3     N/A
#RYEGRASS DOT   N/A         47  28  47  S6      N/A
$$

WAZ027-171010-
YAKIMA VALLEY

CITY            SKY/WX      TMP DP  RH  WIND    PRES   REMARKS
SUNNYSIDE AP    CLEAR       32  31  96  CALM    30.02F
YAKIMA AIRPORT  CLEAR       34  29  82  NW6     30.04F HAZE
YAKIMA-VAGABOND CLEAR       41  31  67  CALM    30.02F
#DONALD 2NE     N/A         48  16  27  S1      30.03F
#GRANDVIEW      N/A         38  33  82  CALM    30.04F
#MABTON         N/A         36  32  85  CALM    30.02F
#MOXEE 2E       N/A         38  N/A N/A CALM    29.99F
#NACHES 2SW     N/A         45  35  68  W2      30.06S
#OUTLOOK DOT    N/A         38  35  89  CALM    29.99F
#PARKER DOT     N/A         45  37  73  CALM    30.02S
#TERRACE HTS    N/A         39  34  82  CALM    30.01F
#TOPPENISH      N/A         37  34  89  CALM    29.97S
#I82 S UMTANUM RN/A         44  31  60  N1      N/A
#UNION GAP DOT  N/A         37  34  89  N1      30.07F
#W YAKIMA       N/A         45  34  65  N3      30.03F
#WHITE SWAN 5E  N/A         34  29  82  CALM    30.05F
#WILEY CITY 3W  N/A         39  25  57  CALM    30.00F
#ZILLAH DOT     N/A         39  35  85  CALM    N/A
$$

WAZ028-171010-
LOWER COLUMBIA BASIN...WASHINGTON

CITY            SKY/WX      TMP DP  RH  WIND    PRES   REMARKS
PASCO           CLEAR       39  36  89  CALM    30.03F
PROSSER AWOS    N/A         36  34  92  CALM    30.05F
RICHLAND AWOS   CLEAR       42  39  89  CALM    30.02F
#BENTON CITY    N/A         45  37  73  CALM    29.93F
#CONNELL 5N     N/A         44  34  68  NE1     30.03F
#CONNELL 5NW    N/A         45  20  36  CALM    29.98F
#ELTOPIA 6NW    N/A         49  38  66  CALM    28.98F
#KAHLOTUS       N/A         43  33  67  S9      30.03F
#KENNEWICK 3S   N/A         57  36  45  SW6     30.01F
#PATERSON       N/A         48  38  68  CALM    30.02F
#PROSSER DOT    N/A         38  36  92  CALM    30.03F
#SAGEMOOR 2W    N/A         49  38  66  CALM    29.89F
#TOUCHET 2S     N/A         41  36  82  CALM    30.02F
#WEST PASCO     N/A         41  37  86  CALM    30.01F
$$

WAZ029-171010-
FOOTHILLS OF THE BLUES...WASHINGTON

CITY            SKY/WX      TMP DP  RH  WIND    PRES   REMARKS
WALLA WALLA AP  CLEAR       51  36  56  E6      30.04F
#CLYDE 6NW      N/A         47  32  56  CALM    30.02F
#DAYTON SCHOOL  N/A         50  30  46  CALM    30.06F
#DELANEY DOT    N/A         35  31  85  SE1     30.05F
#LOWDEN 2SE     N/A         40  35  82  E1      30.00F
#PLEASANT VIEW 1N/A         53  32  45  SW6     30.05F
#PRESCOTT       N/A         38  35  89  CALM    30.03F
#WHITMAN COLLEGEN/A         59  36  42  CALM    30.06F
#WAITSBURG 6SSE N/A         45  34  65  S1      30.03F
#WAITSBURG 8N   N/A         39  N/A N/A N3      29.79F
#WALLA WALLA 5E N/A         52  36  54  NE3     N/A
#WHITMAN MISSIONN/A         44  37  76  CALM    30.05F
$$

WAZ030-171010-
BLUE MOUNTAINS...WASHINGTON

CITY            SKY/WX      TMP DP  RH  WIND    PRES   REMARKS
#DIXIE 5SE      N/A         62  28  27  S6      30.01F
$$

ORZ009-041-WAZ024-171010-
COLUMBIA RIVER GORGE

CITY            SKY/WX      TMP DP  RH  WIND    PRES   REMARKS
HOOD RIVER AP   CLEAR       41  37  86  CALM    30.09S
THE DALLES AP   CLEAR       44  40  86  W3      30.08S
#ARLINGTON AIRPON/A         54  40  59  W10     30.04F
#CELILO DOT     N/A         51  41  68  SW2     N/A
#LYLE           N/A         48  40  74  NE7     30.09S
#MARYHILL       N/A         50  41  71  N1      N/A
#MURDOCK        N/A         50  43  77  NW7     30.03S
#RUFUS DOT      N/A         53  N/A N/A NW7     N/A
#SMITHVILLE     N/A         49  43  80  N3      30.02F

$$

ORZ510-171010-
NORTH CENTRAL OREGON

CITY            SKY/WX      TMP DP  RH  WIND    PRES   REMARKS
#ANTELOPE       N/A         39  31  73  NE2     29.98F
#CHENOWITH 1W   N/A         48  39  71  W12     N/A    WCI 43
#COW CYN RST AREN/A         54  30  40  SW2     N/A
#DUFUR          N/A         38  34  85  CALM    30.05F
#DUFUR 9E       N/A         56  35  45  SE1     30.09F
#GRASS VALLEY 1SN/A         46  34  63  S1      30.09S
#KENT DOT       N/A         47  28  47  S3      N/A
#MAUPIN SCHOOL  N/A         44  37  76  CALM    30.13F
#MORO SCHOOL    N/A         42  38  86  S2      30.06F
#SHANIKO 5WSW   N/A         53   5  14  S14     N/A
#SHANIKO 4NW    N/A         54  31  41  S15     30.11F
#TYGH VALLEY 2NEN/A         41  36  82  CALM    30.07F
#WAPANITIA AIRPON/A         43  36  76  CALM    30.09S
#WASCO DOT      N/A         38  34  85  SE1     N/A
#WASCO 5NE      N/A         46  35  65  SW3     30.04F
$$

ORZ511-171010-
CENTRAL OREGON

CITY            SKY/WX      TMP DP  RH  WIND    PRES   REMARKS
BEND AIRPORT    CLEAR       50  34  54  SW12    30.15F
MADRAS AIRPORT  CLEAR       46  46  100 S7      30.12F
PRINEVILLE AP   CLEAR       34  30  85  CALM    30.15F
REDMOND AIRPORT CLEAR       35  28  75  NE5     30.14S
#ASHWOOD SCHOOL N/A         39  31  73  CALM    30.08F
#BEND 1SW       N/A         46  34  63  SW2     N/A
#BEND-AWBREY    N/A         50  34  54  S7      30.07F
#BEND-KIM LN    N/A         67  37  33  CALM    30.17S
#CULVER         N/A         42  31  65  CALM    29.96F
#CULVER 8W      N/A         47  30  51  CALM    30.10F
#LAKE BILLY CHINN/A         45  N/A N/A CALM    30.17F
#MADRAS 4S      N/A         51   9  18  CALM    N/A
#POWELL BUTTE   N/A         51  35  54  CALM    30.07F
#PRINEVILLE     N/A         41  34  76  CALM    30.22F
#PRINEVILLE 3N  N/A         35  30  82  CALM    30.14F
#WARM SPRINGS   N/A         40  31  70  CALM    29.95F

$$


ORZ509-171010-
EAST SLOPES OF OREGON CASCADES

CITY            SKY/WX      TMP DP  RH  WIND    PRES   REMARKS
SISTERS AWOS    N/A         32  28  85  CALM    N/A
#BLUE BOX PASS  N/A         52  N/A N/A CALM    N/A
#CAMP SHERMAN   N/A         30  27  88  CALM    30.16F
#LA PINE DOT    N/A         29  26  88  CALM    N/A
#LA PINE 4NW    N/A         27  23  85  CALM    30.25S
#LAVA BUTTE DOT N/A         39  29  67  CALM    N/A
#SISTERS ODOT   N/A         32  28  85  CALM    N/A
#SISTERS 3N     N/A         31  23  72  E3      30.11F
#SUNRIVER       N/A         32  28  85  CALM    30.21R
#TUMALO 3W      N/A         56  28  34  SW2     29.95F
#WANOGA BUTTE D N/A         53  17  24  W7      N/A

$$

ORZ044-171010-
LOWER COLUMBIA BASIN...OREGON

CITY            SKY/WX      TMP DP  RH  WIND    PRES   REMARKS
HERMISTON       CLEAR       42  34  73  CALM    30.04F
#BOARDMAN SCHOOLN/A         39  33  79  CALM    30.03F
#BOARDMAN 8SW   N/A         46  36  68  SW6     30.03F
#ECHO 8SW       N/A         45  33  63  CALM    30.05S
#I-84 EX 198 DOTN/A         53  31  43  NE3     N/A
#IONE SCHOOL    N/A         43  28  55  CALM    30.08S
#UMATILLA       N/A         46  34  63  CALM    29.97F
$$

ORZ507-171010-
NORTHERN FOOTHILLS OF THE BLUES

CITY            SKY/WX      TMP DP  RH  WIND    PRES   REMARKS
PENDLETON AIRPT CLEAR       43  31  62  E6      30.05F
#ADAMS 3WNW     N/A         44  32  62  CALM    30.05F
#ATHENA         N/A         57  32  38  E1      30.05F
#CAYUSE         N/A         51  34  52  CALM    30.03F
#HELIX SCHOOL   N/A         37  31  79  CALM    30.06F
#HELIX 3N       N/A         52  32  46  S9      30.03F
#HOLDMAN 5SE    N/A         46  34  63  SE3     30.04F
#HOLDMAN 6E     N/A         50  34  54  CALM    29.85F
#M-F GROVE ELEM N/A         53  32  45  CALM    30.01F
#M-FREEWATER 5SEN/A         57  35  43  E1      30.03F
#PENDLETON DNTN N/A         40  27  59  CALM    30.04F
#PDT AQUATIC CTRN/A         39  28  64  CALM    30.02F
#PDT SUNRIDGE   N/A         36  31  82  CALM    30.07F
#PENDLETON 7NW  N/A         42  33  70  CALM    30.11R
#PILOT ROCK 1S  N/A         46  26  45  CALM    30.06F
#PILOT ROCK     N/A         44  29  55  CALM    30.07F
#TUTUILLA       N/A         38  33  82  CALM    30.12S
#UMAPINE 2E     N/A         46  36  68  CALM    30.00F

$$

ORZ508-171010-
SOUTHERN FOOTHILLS OF THE BLUES

CITY            SKY/WX      TMP DP  RH  WIND    PRES   REMARKS
LEXINGTON       CLEAR       48  30  49  E5      30.09S
#FOSSIL SCHOOL  N/A         43  32  65  CALM    30.03F
#HEPPNER EOC    N/A         54  33  45  E12     29.97F
#HEPPNER 4NE    N/A         56  31  38  SE2     30.02F
#LEXINGTON 2SE  N/A         46  31  56  CALM    30.02F
#MIKKALO        N/A         45  29  53  SE3     30.14F
#OLEX 4N        N/A         48  34  58  S7      30.03F
#RUGGS 5NE      N/A         53  29  39  N1      30.23F
#RUGGS 2SW      N/A         56  31  38  S12     30.05F

$$

ORZ502-503-171010-
BLUE MOUNTAINS

CITY            SKY/WX      TMP DP  RH  WIND    PRES   REMARKS
MEACHAM         CLEAR       30  27  88  CALM    30.14F
#BATTLE MTN DOT N/A         41  25  53  S8      N/A
#GRANITE        N/A         26  18  71  CALM    30.20F
#GREENHORN 9SW  N/A         30  27  88  CALM    26.39F
#HEPPNER 15SE   N/A         51  30  44  W1      30.08F
#LADD CYN SMT   N/A         38  26  62  E2      N/A
#LADD CREEK ODOTN/A         37  29  72  SW3     N/A
#LONG CREEK HS  N/A         46  34  63  CALM    30.15F
#N POWDER DOT   N/A         27  25  92  W2      N/A
#PIKES PEAK     N/A         64  27  24  N12     27.99
#TOLLGATE       N/A         43  27  53  CALM    30.01F
#TROY SCHOOL    N/A         37  32  82  CALM    30.04F
#UKIAH          N/A         28  26  92  CALM    30.14S
#WESTON 4E      N/A         55  29  37  SE8     30.00F
$$

ORZ505-171010-
JOHN DAY BASIN

CITY            SKY/WX      TMP DP  RH  WIND    PRES   REMARKS
JOHN DAY        CLEAR       47  31  53  E9      30.18F
#ANTELOPE 9ESE  N/A         42  31  65  SW1     N/A
#DAYVILLE SCHOOLN/A         42  31  65  CALM    30.13S
#MITCHELL 8NW   N/A         57  28  33  CALM    30.11S
#SPRAY SCHOOL   N/A         36  N/A N/A CALM    N/A
$$

ORZ506-171010-
OCHOCO AND JOHN DAY HIGHLANDS

CITY            SKY/WX      TMP DP  RH  WIND    PRES   REMARKS
#HORSE RIDGE DO N/A         28  24  85  SW2     N/A
#IZEE 6NW       N/A         30  27  88  N2      N/A
#PAULINA ODOT   N/A         35  30  82  CALM    N/A
#PINE MTN OBS   N/A         54  25  32  S9      N/A
#PRAIRIE CITY   N/A         32  27  82  CALM    30.33F
#SENECA         N/A         28  N/A N/A CALM    N/A
#SENECA 9NW     N/A         27  24  88  CALM    30.27S
$$

ORZ049-171010-
GRANDE RONDE VALLEY

CITY            SKY/WX      TMP DP  RH  WIND    PRES   REMARKS
LA GRANDE       CLEAR       53  25  33  SE12    30.17F
#COVE           N/A         40  34  79  E2      30.18F
#COVE SCHOOL    N/A         39  32  76  CALM    30.16F
#COVE 6NW       N/A         49  29  46  S2      30.16F
#ELGIN 3N       N/A         35  26  69  CALM    30.12F
#ELGIN 1E       N/A         35  27  72  CALM    N/A
#IMBLER SCHOOL  N/A         46  28  49  CALM    30.12F
#ISLAND CITY 4N N/A         43  42  96  CALM    30.10S
#UNION 1S       N/A         50  28  42  SE10    30.14F
$$

ORZ050-171010-
WALLOWA COUNTY

CITY            SKY/WX      TMP DP  RH  WIND    PRES   REMARKS
JOSEPH AIRPORT  CLEAR       34  28  78  CALM    30.18F
#ENTERPRISE HS  N/A         31  27  85  CALM    30.10F
#IMNAHA SCHOOL  N/A         41  31  67  N1      30.15F
#IMNAHA 10S     N/A         45  27  49  SW8     30.15F
#JOSEPH         N/A         37  32  82  SW3     30.35F
#JOSEPH 3N      N/A         28  21  75  CALM    30.18F
#JOSEPH 3W      N/A         47  32  56  SW1     30.57F
#LOSTINE        N/A         31  27  85  CALM    30.03F
#LOSTINE 3SE    N/A         35  28  75  W2      30.20F
#MT HOWARD 8000 N/A         46  14  27  S7      30.31F
#PROMISE 1S     N/A         39  27  62  CALM    30.22F
#WALLOWA LAKE   N/A         37  33  85  CALM    30.18F
#WALLOWA SCHOOL N/A         28  26  92  CALM    30.15F



$$



USA.gov is the U.S. government's official web portal to all federal, state and local government web resources and services.